Flag for Poland Weather past 2 weeks in Wroclaw, Poland

Now
79 °F

Sunny.


Feels Like: 79 °F
Forecast: 56 / 89 °F
Wind: 7 mph from Southeast

Location: Wroclaw Ii

Current Time: Aug 2, 2015 at 12:41:42 PM

Latest Report: Aug 2, 2015 at 12:00 PM


Visibility: 10 mi

Pressure: 30.12 "Hg

Humidity: 42%

Dew point: 54 °F

Location of WroclawLocation

Historic Weather in Wroclaw — Graph

°F

Wroclaw temperature yesterday

Maximum temperature yesterday: 82 °F (at 4:30 PM)
Minimum temperature yesterday: 48 °F (at 3:30 AM)
Average temperature yesterday: 66 °F

Past Weeks' High & Low Weather Summary

 TemperatureHumidityPressure
High93 °F (Jul 18, 12:00 PM)100% (Jul 19, 10:30 PM)30.12 "Hg (Jul 19, 10:30 PM)
Low48 °F (Aug 1, 3:30 AM)16% (Jul 21, 8:30 AM)29.65 "Hg (Jul 25, 12:00 PM)
Average71 °F61%29.91 "Hg
* Reported Jul 18 11:00 AM — Aug 2 11:30 AM, Wroclaw, Weather by CustomWeather, © 2015

Note: Actual official high and low records may vary slightly from our data, if they occured in-between our weather recording intervals... More about our weather records

Advertising

Wroclaw weather history for previous 24 hours

 ConditionsComfort  
Time TempWeatherWind HumidityBarometerVisibility
11:30 AM
Sun, Aug 2
79 °FSunny.7 mph45%30.12 "Hg10 mi
11:00 AM79 °FPassing clouds.6 mph42%30.12 "HgN/A
10:30 AM81 °FPassing clouds.6 mph42%30.12 "HgN/A
10:00 AM77 °FPassing clouds.5 mph44%30.12 "HgN/A
9:30 AM75 °FPassing clouds.3 mph47%30.12 "HgN/A
9:00 AM70 °FPassing clouds.3 mph57%30.12 "HgN/A
8:30 AM70 °FSunny.6 mph57%30.09 "Hg10 mi
8:00 AM68 °FSunny.7 mph60%30.09 "Hg10 mi
7:30 AM66 °FSunny.5 mph60%30.09 "Hg10 mi
7:00 AM64 °FSunny.5 mph68%30.09 "Hg10 mi
6:30 AM63 °FSunny.5 mph68%30.09 "Hg10 mi
6:00 AM63 °FClear.7 mph68%30.07 "Hg10 mi
5:30 AM61 °FClear.5 mph68%30.07 "Hg10 mi
5:00 AM63 °FClear.7 mph64%30.07 "Hg10 mi
4:30 AM64 °FClear.5 mph60%30.07 "Hg10 mi
4:00 AM64 °FClear.5 mph64%30.07 "Hg10 mi
3:30 AM64 °FClear.2 mph60%30.07 "Hg10 mi
3:00 AM64 °FClear.6 mph60%30.07 "Hg10 mi
2:30 AM64 °FClear.6 mph60%30.07 "Hg10 mi
2:00 AM66 °FClear.6 mph56%30.07 "Hg10 mi
1:30 AM66 °FClear.6 mph56%30.07 "Hg10 mi
1:00 AM66 °FClear.7 mph56%30.07 "Hg10 mi
12:00 AM68 °FClear.6 mph49%30.07 "Hg10 mi
11:30 PM
Sat, Aug 1
70 °FClear.6 mph46%30.07 "Hg10 mi
11:00 PM70 °FClear.5 mph46%30.07 "Hg10 mi
10:30 PM70 °FClear.7 mph46%30.07 "Hg10 mi
10:00 PM70 °FClear.7 mph46%30.07 "Hg10 mi
9:30 PM72 °FSunny.8 mph44%30.04 "Hg10 mi
9:00 PM72 °FSunny.8 mph44%30.04 "Hg10 mi
8:30 PM72 °FSunny.8 mph44%30.04 "Hg10 mi
8:00 PM72 °FSunny.8 mph44%30.04 "Hg10 mi
7:30 PM75 °FSunny.10 mph36%30.04 "Hg10 mi
7:00 PM79 °FSunny.10 mph30%30.04 "Hg10 mi
6:30 PM77 °FSunny.12 mph32%30.04 "Hg10 mi
6:00 PM79 °FSunny.10 mph28%30.04 "Hg10 mi
5:30 PM81 °FPassing clouds.10 mph26%30.04 "HgN/A
5:00 PM81 °FPassing clouds.9 mph24%30.04 "HgN/A
4:30 PM82 °FSunny.10 mph25%30.04 "Hg10 mi
4:00 PM81 °FPassing clouds.10 mph26%30.04 "HgN/A
3:30 PM81 °FPassing clouds.8 mph24%30.04 "HgN/A
3:00 PM81 °FPassing clouds.9 mph28%30.07 "HgN/A
2:30 PM79 °FPassing clouds.7 mph32%30.07 "HgN/A
2:00 PM77 °FPassing clouds.7 mph32%30.07 "HgN/A
1:30 PM77 °FPassing clouds.9 mph32%30.07 "HgN/A
1:00 PM77 °FPassing clouds.9 mph32%30.09 "HgN/A
12:30 PM75 °FPassing clouds.9 mph36%30.09 "HgN/A
12:00 PM73 °FSunny.10 mph36%30.09 "Hg10 mi
Weather by CustomWeather, © 2015

See weather overviewHow to use our weather pages